Online Auction of Welding Booths and Business Equipment

Lot #0195: Vulcan VHFA18-1M3ZN Heated Holding Cabinet

Bidding is closed.
High Bid:$340.00
NA
Bidding Ended: Thu, Nov 12  11:24:00 am PT
High Bidder: arronf
Bid Increment: $10.00
Starting Bid: $5.00
Item Location: San Ramon, CA 94583
Item has been viewed 124 times.

Vulcan VHFA18-1M3ZN Heated Holding Cabinet

  • Model: VHFA18-1M3ZN
  • Serial: 52-1011002
  • Volts: 120
  • Watts: 2000
  • 1 Phase
  • 16.6 Amps
  • Size: 24”x29.5”x71”
  • On wheels/rolls
Bid Date Bid Amount Bidder
Nov 12, 2020 - 10:10:32 AM $340.00 iarronf
Nov 12, 2020 - 10:10:32 AM $330.00 iBlacktiger
Nov 12, 2020 - 9:27:51 AM $300.00 iarronf
Nov 12, 2020 - 9:24:41 AM $290.00 iMbre123
Nov 12, 2020 - 9:24:34 AM $280.00 iBlacktiger
Nov 12, 2020 - 9:24:34 AM $270.00 iMbre123
Nov 12, 2020 - 9:21:58 AM $260.00 iBlacktiger
Nov 12, 2020 - 9:21:58 AM $250.00 iMbre123
Nov 12, 2020 - 8:20:16 AM $210.00 iMbre123
Nov 12, 2020 - 8:20:16 AM $200.00 imartindc33
Nov 12, 2020 - 8:19:16 AM $160.00 imartindc33
Nov 12, 2020 - 8:19:16 AM $150.00 iMbre123
Nov 12, 2020 - 8:03:13 AM $65.00 imartindc33
Nov 12, 2020 - 8:03:14 AM $65.00 ivictor2281
Nov 12, 2020 - 7:53:51 AM $60.00 imartindc33
Nov 12, 2020 - 7:53:51 AM $55.00 iJudas1484
Nov 12, 2020 - 7:53:31 AM $45.00 iJudas1484
Nov 12, 2020 - 7:53:31 AM $40.00 imartindc33
Nov 12, 2020 - 7:22:51 AM $30.00 iJudas1484
Nov 12, 2020 - 12:35:56 AM $25.00 iMAXXLY
Nov 12, 2020 - 12:13:36 AM $20.00 imariom
Nov 12, 2020 - 12:13:36 AM $15.00 iMAXXLY
Nov 10, 2020 - 3:47:55 PM $10.00 imariom
Nov 10, 2020 - 11:53:25 AM $5.00 iOldport245
Click on any picture to see a larger image.